AFR357K CYYZ-LFPG

Flight info

Callsign AFR357K
Flight time N/A
Altitude 35000
Route VERDO7 IPTOS DCT KEMVI Q852 KANUR Q806 SAVEX DCT MIILS N285B NICSO/M084F360 DCT 48N050W 50N040W 52N030W 54N020W DCT DOGAL DCT BEXET/N0481F370 DCT MORAG DCT NUCHU L18 MID/N0498F290 Y803 SFD UM605 BIBAX
Aircraft B77W/H-SDE1E2E3FGHIJ2J3J4J5M1RWXY/LB1D1

Departure

Time 2026-05-04 14:49
Airport Toronto Pearson International Airport (CYYZ)

Arrival

Time N/A
Airport Charles de Gaulle International Airport (LFPG)
Time Latitude Longitude Altitude Speed Heading
2026-05-04 14:03 43.68431 -79.62078 576 ft 0 kts 106°
2026-05-04 14:35 43.68432 -79.62093 576 ft 2 kts 74°
2026-05-04 14:35 43.68428 -79.62112 576 ft 2 kts 71°
2026-05-04 14:35 43.68423 -79.62131 576 ft 2 kts 74°
2026-05-04 14:35 43.68419 -79.62151 576 ft 2 kts 75°
2026-05-04 14:36 43.68416 -79.62171 576 ft 2 kts 75°
2026-05-04 14:36 43.68413 -79.62190 576 ft 2 kts 108°
2026-05-04 14:36 43.68422 -79.62205 575 ft 1 kts 162°
2026-05-04 14:36 43.68432 -79.62206 575 ft 0 kts 199°
2026-05-04 14:37 43.68438 -79.62203 575 ft 0 kts 200°
2026-05-04 14:41 43.68431 -79.62207 575 ft 2 kts 204°
2026-05-04 14:42 43.68388 -79.62288 575 ft 7 kts 240°
2026-05-04 14:42 43.68361 -79.62356 576 ft 8 kts 249°
2026-05-04 14:42 43.68366 -79.62431 575 ft 8 kts 306°
2026-05-04 14:43 43.68404 -79.62495 575 ft 9 kts 311°
2026-05-04 14:43 43.68456 -79.62568 572 ft 12 kts 311°
2026-05-04 14:43 43.68474 -79.62698 569 ft 14 kts 274°
2026-05-04 14:43 43.68521 -79.62798 567 ft 11 kts 310°
2026-05-04 14:44 43.68566 -79.62865 566 ft 8 kts 314°
2026-05-04 14:44 43.68604 -79.62917 565 ft 7 kts 316°
2026-05-04 14:44 43.68647 -79.62972 563 ft 9 kts 317°
2026-05-04 14:44 43.68696 -79.63036 563 ft 9 kts 314°
2026-05-04 14:45 43.68746 -79.63103 563 ft 10 kts 315°
2026-05-04 14:45 43.68805 -79.63181 563 ft 12 kts 316°
2026-05-04 14:45 43.68876 -79.63272 561 ft 15 kts 317°
2026-05-04 14:45 43.68958 -79.63382 559 ft 17 kts 314°
2026-05-04 14:46 43.69024 -79.63473 556 ft 5 kts 315°
2026-05-04 14:46 43.69059 -79.63517 555 ft 8 kts 329°
2026-05-04 14:46 43.69120 -79.63512 554 ft 10 kts 35°
2026-05-04 14:46 43.69179 -79.63451 555 ft 10 kts 26°
2026-05-04 14:47 43.69250 -79.63435 556 ft 10 kts
2026-05-04 14:47 43.69310 -79.63424 555 ft 6 kts
2026-05-04 14:47 43.69355 -79.63438 554 ft 6 kts 326°
2026-05-04 14:47 43.69374 -79.63470 554 ft 3 kts 293°
2026-05-04 14:48 43.69379 -79.63500 553 ft 3 kts 275°
2026-05-04 14:48 43.69376 -79.63533 553 ft 3 kts 249°
2026-05-04 14:48 43.69364 -79.63558 552 ft 0 kts 229°
2026-05-04 14:48 43.69230 -79.63763 550 ft 72 kts 225°
2026-05-04 14:49 43.68678 -79.64562 551 ft 156 kts 227°
2026-05-04 14:49 43.67827 -79.65839 1153 ft 193 kts 226°
2026-05-04 14:49 43.66743 -79.66788 2359 ft 198 kts 198°
2026-05-04 14:49 43.65334 -79.66683 3476 ft 214 kts 168°
2026-05-04 14:50 43.63923 -79.65986 4177 ft 226 kts 165°
2026-05-04 14:50 43.62397 -79.65185 4770 ft 244 kts 164°
2026-05-04 14:50 43.60774 -79.64329 5403 ft 260 kts 164°
2026-05-04 14:50 43.59043 -79.63414 6138 ft 273 kts 164°
2026-05-04 14:51 43.57275 -79.62473 7026 ft 279 kts 164°
2026-05-04 14:51 43.55454 -79.61505 7881 ft 286 kts 164°
2026-05-04 14:51 43.53618 -79.60474 8717 ft 294 kts 156°
2026-05-04 14:51 43.52018 -79.58635 9457 ft 311 kts 129°
2026-05-04 14:52 43.51081 -79.55971 10238 ft 320 kts 104°
2026-05-04 14:52 43.50977 -79.52830 10706 ft 336 kts 76°
2026-05-04 14:52 43.51673 -79.49719 11200 ft 352 kts 68°
2026-05-04 14:52 43.52459 -79.46455 11824 ft 368 kts 70°
2026-05-04 14:53 43.53274 -79.43050 12450 ft 381 kts 64°
2026-05-04 14:53 43.54406 -79.39756 13041 ft 394 kts 59°
2026-05-04 14:53 43.55655 -79.36341 13678 ft 407 kts 59°
2026-05-04 14:53 43.56955 -79.32782 14411 ft 418 kts 60°
2026-05-04 14:54 43.58266 -79.29183 15212 ft 426 kts 60°
2026-05-04 14:54 43.59598 -79.25517 16094 ft 431 kts 60°
2026-05-04 14:54 43.60932 -79.21836 16925 ft 436 kts 60°
2026-05-04 14:54 43.62284 -79.18101 17720 ft 441 kts 60°
2026-05-04 14:55 43.63656 -79.14309 18522 ft 447 kts 60°
2026-05-04 14:55 43.65041 -79.10468 19424 ft 450 kts 60°
2026-05-04 14:55 43.66429 -79.06615 20313 ft 453 kts 60°
2026-05-04 14:55 43.67838 -79.02702 21142 ft 458 kts 60°
2026-05-04 14:56 43.69257 -78.98750 21924 ft 463 kts 60°
2026-05-04 14:56 43.70680 -78.94787 22673 ft 468 kts 59°
2026-05-04 14:56 43.72130 -78.90739 23470 ft 472 kts 59°
2026-05-04 14:56 43.73586 -78.86668 24276 ft 475 kts 59°
2026-05-04 14:57 43.75039 -78.82600 24995 ft 480 kts 59°
2026-05-04 14:57 43.76526 -78.78433 25641 ft 485 kts 59°
2026-05-04 14:57 43.78002 -78.74268 26276 ft 491 kts 59°
2026-05-04 14:57 43.79492 -78.69973 26962 ft 495 kts 59°
2026-05-04 14:58 43.80963 -78.65717 27626 ft 498 kts 60°
2026-05-04 14:58 43.82455 -78.61395 28240 ft 503 kts 59°
2026-05-04 14:58 43.83973 -78.56992 28875 ft 507 kts 59°
2026-05-04 14:58 43.85470 -78.52646 29578 ft 508 kts 59°
2026-05-04 14:59 43.86997 -78.48200 30469 ft 506 kts 59°
2026-05-04 14:59 43.88475 -78.43893 31369 ft 502 kts 59°
2026-05-04 14:59 43.91441 -78.35233 32797 ft 498 kts 59°
2026-05-04 15:00 43.92926 -78.30891 33257 ft 501 kts 59°
2026-05-04 15:00 43.94429 -78.26492 33714 ft 502 kts 59°
2026-05-04 15:00 43.95912 -78.22141 34270 ft 501 kts 59°
2026-05-04 15:01 43.98877 -78.13422 34769 ft 503 kts 59°
2026-05-04 15:01 44.00349 -78.09077 34767 ft 499 kts 59°
2026-05-04 15:01 44.03285 -78.00403 34776 ft 497 kts 59°
2026-05-04 15:02 44.06200 -77.91763 34773 ft 499 kts 59°
2026-05-04 15:02 44.09141 -77.83013 34782 ft 499 kts 59°
2026-05-04 15:03 44.12067 -77.74286 34789 ft 500 kts 59°
2026-05-04 15:03 44.15007 -77.65483 34798 ft 503 kts 59°
2026-05-04 15:04 44.17936 -77.56684 34797 ft 503 kts 59°
2026-05-04 15:04 44.21025 -77.48071 34797 ft 495 kts 52°
2026-05-04 15:05 44.24672 -77.39974 34794 ft 496 kts 51°
2026-05-04 15:05 44.28339 -77.31850 34782 ft 495 kts 52°
2026-05-04 15:06 44.32003 -77.23699 34781 ft 497 kts 52°
2026-05-04 15:07 44.37461 -77.11498 34774 ft 496 kts 52°
2026-05-04 15:07 44.41076 -77.03381 34765 ft 494 kts 52°
2026-05-04 15:08 44.44716 -76.95188 34767 ft 497 kts 52°
2026-05-04 15:08 44.48328 -76.87031 34764 ft 494 kts 52°
2026-05-04 15:09 44.51936 -76.78862 34751 ft 496 kts 51°
2026-05-04 15:09 44.55542 -76.70672 34755 ft 496 kts 51°
2026-05-04 15:10 44.60944 -76.58356 34756 ft 496 kts 51°
2026-05-04 15:11 44.66336 -76.46013 34759 ft 497 kts 51°
2026-05-04 15:11 44.69954 -76.37702 34758 ft 499 kts 51°
2026-05-04 15:12 44.73554 -76.29408 34740 ft 501 kts 52°
2026-05-04 15:12 44.77005 -76.20883 34747 ft 506 kts 60°
2026-05-04 15:13 44.79522 -76.11612 34745 ft 512 kts 64°
2026-05-04 15:13 44.81959 -76.02245 34743 ft 509 kts 64°
2026-05-04 15:14 44.84371 -75.92933 34746 ft 512 kts 64°
2026-05-04 15:14 44.86792 -75.83546 34748 ft 512 kts 64°
2026-05-04 15:15 44.89220 -75.74091 34739 ft 511 kts 64°
2026-05-04 15:15 44.91630 -75.64666 34749 ft 511 kts 64°
2026-05-04 15:16 44.95221 -75.50557 34748 ft 514 kts 64°
2026-05-04 15:17 44.98810 -75.36365 34765 ft 514 kts 64°
2026-05-04 15:17 45.02393 -75.22108 34734 ft 513 kts 65°
2026-05-04 15:18 45.04761 -75.12637 34745 ft 515 kts 65°
2026-05-04 15:19 45.08305 -74.98392 34758 ft 518 kts 65°
2026-05-04 15:19 45.11867 -74.83978 34754 ft 516 kts 65°
2026-05-04 15:20 45.14254 -74.74389 34759 ft 517 kts 64°
2026-05-04 15:20 45.16783 -74.64992 34750 ft 512 kts 63°
2026-05-04 15:21 45.19323 -74.55547 34744 ft 516 kts 63°
2026-05-04 15:22 45.23101 -74.41370 34758 ft 517 kts 63°
2026-05-04 15:22 45.26865 -74.27130 34718 ft 512 kts 64°
2026-05-04 15:23 45.29355 -74.17669 34735 ft 516 kts 64°
2026-05-04 15:23 45.31843 -74.08164 34734 ft 515 kts 65°
2026-05-04 15:24 45.36785 -73.89167 34745 ft 516 kts 65°
2026-05-04 15:25 45.39269 -73.79565 34731 ft 517 kts 65°
2026-05-04 15:26 45.42955 -73.65235 34753 ft 516 kts 65°
2026-05-04 15:26 45.46635 -73.50842 34760 ft 518 kts 65°
2026-05-04 15:27 45.50277 -73.36509 34753 ft 517 kts 65°
2026-05-04 15:28 45.53923 -73.22071 34749 ft 518 kts 66°
2026-05-04 15:29 45.57561 -73.07571 34737 ft 520 kts 66°
2026-05-04 15:30 45.65974 -72.73682 34734 ft 520 kts 67°
2026-05-04 15:31 45.69554 -72.59105 34749 ft 520 kts 67°
2026-05-04 15:32 45.75491 -72.34724 34734 ft 521 kts 69°
2026-05-04 15:34 45.81378 -72.10284 34726 ft 522 kts 69°
2026-05-04 15:34 45.84905 -71.95509 34728 ft 523 kts 69°
2026-05-04 15:35 45.88389 -71.80820 34721 ft 522 kts 69°
2026-05-04 15:36 45.91875 -71.66018 34709 ft 522 kts 69°
2026-05-04 15:36 45.94177 -71.56196 34710 ft 524 kts 69°
2026-05-04 15:37 45.96482 -71.46311 34717 ft 523 kts 69°
2026-05-04 15:37 45.98766 -71.36472 34709 ft 524 kts 69°
2026-05-04 15:38 46.01057 -71.26559 34704 ft 523 kts 70°
2026-05-04 15:38 46.03339 -71.16640 34704 ft 522 kts 70°